FW0475 Weather Reports


Display with metric or nautical units.
time (UTC)temp
F
wind
direction
speed
MPH
gust
MPH
rain 1hr
in
rain 24hr
in
rain mn
in
humidity
%
barometer
mb
20260509214836 59 265 2.0 4.0 0.00 0.00 0.00 48 1005.9
20260509214331 60 269 1.0 3.0 0.00 0.00 0.00 49 1005.8
20260509213825 59 300 2.0 5.0 0.00 0.00 0.00 51 1005.8
20260509213358 59 265 2.0 5.0 0.00 0.00 0.00 52 1005.9
20260509212821 58 275 3.0 5.0 0.00 0.00 0.00 55 1005.9
20260509212331 57 295 3.0 5.0 0.00 0.00 0.00 56 1005.9
20260509211825 57 302 3.0 6.0 0.00 0.00 0.00 56 1005.9
20260509211351 56 317 3.0 6.0 0.00 0.00 0.00 56 1005.9
20260509210841 56 278 3.0 5.0 0.00 0.00 0.00 57 1005.9
20260509210314 56 275 2.0 4.0 0.00 0.00 0.00 57 1005.8
20260509205830 55 281 3.0 4.0 0.00 0.00 0.00 57 1005.7
20260509205326 55 269 3.0 4.0 0.00 0.00 0.00 56 1005.4
20260509204857 54 240 3.0 4.0 0.00 0.00 0.00 58 1005.3
20260509204331 54 280 2.0 4.0 0.00 0.00 0.00 57 1005.2
20260509203826 54 260 2.0 4.0 0.00 0.00 0.00 57 1005.0
20260509203321 55 248 2.0 4.0 0.00 0.00 0.00 58 1005.0
20260509202854 55 252 2.0 4.0 0.00 0.00 0.00 58 1005.0
20260509202324 56 259 3.0 4.0 0.00 0.00 0.00 56 1004.9
20260509201818 55 234 2.0 4.0 0.00 0.00 0.00 58 1005.0
20260509201336 55 235 3.0 5.0 0.00 0.00 0.00 58 1005.0
20260509200823 55 235 3.0 5.0 0.00 0.00 0.00 56 1005.0
20260509200340 55 209 3.0 5.0 0.00 0.00 0.00 55 1004.9
20260509195835 54 216 4.0 5.0 0.00 0.00 0.00 58 1004.9
20260509195328 54 219 3.0 7.0 0.00 0.00 0.00 61 1004.8
20260509194819 54 211 3.0 7.0 0.00 0.00 0.00 60 1004.8
20260509194333 54 200 3.0 7.0 0.00 0.00 0.00 60 1004.7
20260509193825 54 215 3.0 7.0 0.00 0.00 0.00 59 1004.7
20260509193329 54 225 3.0 7.0 0.00 0.00 0.00 60 1004.7
20260509192826 54 209 4.0 7.0 0.00 0.00 0.00 59 1004.7
20260509192321 54 213 4.0 5.0 0.00 0.00 0.00 59 1004.6
20260509191818 54 236 3.0 5.0 0.00 0.00 0.00 59 1004.6
20260509191335 54 234 2.0 4.0 0.00 0.00 0.00 59 1004.5
20260509190829 53 208 2.0 4.0 0.00 0.00 0.00 61 1004.5
20260509190334 53 211 3.0 5.0 0.00 0.00 0.00 58 1004.5
20260509185838 53 217 2.0 5.0 0.00 0.00 0.00 62 1004.5
20260509185324 53 222 3.0 6.0 0.00 0.00 0.00 60 1004.5
20260509184841 53 209 4.0 6.0 0.00 0.00 0.00 60 1004.5
20260509184337 53 229 3.0 5.0 0.00 0.00 0.00 60 1004.5
20260509183821 53 211 4.0 5.0 0.00 0.00 0.00 58 1004.5
20260509183317 53 234 2.0 7.0 0.00 0.00 0.00 60 1004.4
20260509182833 52 230 3.0 7.0 0.00 0.00 0.00 62 1004.4
20260509182321 52 205 4.0 7.0 0.00 0.00 0.00 61 1004.4
20260509181902 52 223 4.0 7.0 0.00 0.00 0.00 60 1004.4
20260509181330 52 228 4.0 7.0 0.00 0.00 0.00 60 1004.4
20260509180843 52 201 3.0 6.0 0.00 0.00 0.00 62 1004.3
20260509180315 52 207 4.0 7.0 0.00 0.00 0.00 62 1004.4
20260509175851 52 204 3.0 7.0 0.00 0.00 0.00 62 1004.3
20260509175326 52 212 4.0 7.0 0.00 0.00 0.00 60 1004.4
20260509174817 52 255 4.0 7.0 0.00 0.00 0.00 60 1004.3
20260509174333 53 221 4.0 7.0 0.00 0.00 0.00 58 1004.2
20260509173817 53 238 2.0 3.0 0.00 0.00 0.00 57 1004.1
20260509173336 52 254 2.0 3.0 0.00 0.00 0.00 58 1004.2
20260509172829 51 211 1.0 5.0 0.00 0.00 0.00 59 1004.2
20260509172324 51 220 2.0 5.0 0.00 0.00 0.00 59 1004.3
20260509171839 51 200 2.0 4.0 0.00 0.00 0.00 61 1004.3
20260509171329 50 252 2.0 5.0 0.00 0.00 0.00 61 1004.3
20260509170825 50 258 2.0 5.0 0.00 0.00 0.00 63 1004.4
20260509170333 49 273 2.0 7.0 0.00 0.00 0.00 62 1004.4
20260509165822 49 236 2.0 7.0 0.00 0.00 0.00 62 1004.4
20260509165317 49 219 2.0 8.0 0.00 0.00 0.00 62 1004.3
20260509164827 50 271 4.0 9.0 0.00 0.00 0.00 62 1004.3
20260509164334 50 205 4.0 11.0 0.00 0.00 0.00 61 1004.1
20260509163822 51 226 7.0 11.0 0.00 0.00 0.00 61 1003.8
20260509163332 53 229 5.0 9.0 0.00 0.00 0.00 59 1003.9
20260509162827 55 220 6.0 9.0 0.00 0.00 0.00 54 1003.7
20260509162324 56 67 0.0 2.0 0.00 0.00 0.00 49 1003.5
20260509161836 55 67 0.0 2.0 0.00 0.00 0.00 52 1003.3
20260509161327 55 60 1.0 2.0 0.00 0.00 0.00 55 1003.2
20260509160820 54 10 1.0 2.0 0.00 0.00 0.00 57 1003.1
20260509160317 53 308 0.0 3.0 0.00 0.00 0.00 60 1003.1
20260509155830 51 86 1.0 5.0 0.00 0.00 0.00 58 1003.0
20260509155325 51 75 1.0 5.0 0.00 0.00 0.00 58 1003.2
20260509154900 51 47 2.0 6.0 0.00 0.00 0.00 59 1003.1
20260509154328 50 85 1.0 10.0 0.00 0.00 0.00 58 1003.2
20260509153837 49 72 4.0 10.0 0.00 0.00 0.00 59 1003.1
20260509153324 49 51 2.0 6.0 0.00 0.00 0.00 61 1003.9
20260509152839 49 119 2.0 9.0 0.00 0.00 0.00 62 1004.0
20260509152331 49 287 5.0 9.0 0.00 0.00 0.00 63 1004.4
20260509151827 48 302 1.0 6.0 0.00 0.00 0.00 64 1003.8
20260509151322 47 321 2.0 7.0 0.00 0.00 0.00 66 1003.7
20260509150818 47 263 2.0 7.0 0.00 0.00 0.00 70 1003.8
20260509150332 47 257 4.0 7.0 0.00 0.00 0.00 71 1003.8
20260509145840 47 259 2.0 5.0 0.00 0.00 0.00 71 1003.7
20260509145334 48 211 3.0 4.0 0.00 0.00 0.00 71 1003.5
20260509144908 48 215 2.0 4.0 0.00 0.00 0.00 71 1003.4
20260509144342 48 204 2.0 9.0 0.00 0.00 0.00 71 1003.3
20260509143831 48 198 3.0 9.0 0.00 0.00 0.00 71 1003.1
20260509143327 48 190 4.0 9.0 0.00 0.00 0.00 72 1003.1
20260509142820 49 219 4.0 12.0 0.00 0.00 0.00 73 1002.8
20260509142317 48 268 5.0 12.0 0.00 0.00 0.00 74 1002.8
20260509141814 48 224 7.0 11.0 0.00 0.00 0.00 74 1002.6
20260509141332 48 229 5.0 11.0 0.00 0.00 0.00 74 1002.5
20260509140822 48 207 7.0 11.0 0.00 0.00 0.00 74 1002.5
20260509140339 48 196 5.0 10.0 0.00 0.00 0.00 74 1002.3
20260509135829 48 202 7.0 11.0 0.00 0.00 0.00 73 1002.3
20260509135325 48 227 7.0 11.0 0.00 0.00 0.00 73 1002.4
20260509134832 48 257 7.0 14.0 0.00 0.00 0.00 73 1002.3
20260509134318 48 253 6.0 14.0 0.00 0.00 0.00 73 1002.1
20260509133833 48 243 8.0 16.0 0.00 0.00 0.00 74 1002.0
20260509133347 48 238 8.0 17.0 0.00 0.00 0.00 74 1002.0
20260509132851 48 242 8.0 19.0 0.00 0.00 0.00 74 1001.9
20260509132325 48 156 8.0 19.0 0.00 0.00 0.00 74 1001.8
20260509131815 48 236 9.0 17.0 0.00 0.00 0.00 74 1001.9
20260509131354 48 219 8.0 13.0 0.00 0.00 0.00 74 1001.8
20260509130827 48 279 6.0 19.0 0.00 0.00 0.00 73 1001.8
20260509130340 49 189 9.0 19.0 0.00 0.00 0.00 73 1001.8
20260509125826 49 211 11.0 18.0 0.00 0.00 0.00 74 1001.8
20260509125316 48 252 9.0 18.0 0.00 0.00 0.00 74 1001.8
20260509124820 48 221 8.0 16.0 0.00 0.00 0.00 74 1001.9
20260509124338 48 190 7.0 16.0 0.00 0.00 0.00 74 1001.9
20260509123829 48 234 10.0 20.0 0.00 0.00 0.00 74 1001.8
20260509123342 48 213 6.0 20.0 0.00 0.00 0.00 74 1001.7
20260509122830 49 253 9.0 18.0 0.00 0.00 0.00 74 1001.6
20260509122326 48 234 9.0 18.0 0.00 0.00 0.00 74 1001.6
20260509121823 48 261 10.0 18.0 0.00 0.00 0.00 74 1001.6
20260509121339 48 240 7.0 17.0 0.00 0.00 0.00 75 1001.7
20260509120831 48 242 9.0 20.0 0.00 0.00 0.00 74 1001.8
20260509120327 48 198 8.0 20.0 0.00 0.00 0.00 74 1001.6
20260509115819 48 246 10.0 18.0 0.00 0.00 0.00 74 1001.6
20260509115336 48 210 10.0 15.0 0.00 0.00 0.00 74 1001.6
20260509114829 48 210 10.0 15.0 0.00 0.00 0.00 74 1001.8
20260509114324 48 240 9.0 17.0 0.00 0.00 0.00 74 1001.6
20260509113832 48 243 10.0 15.0 0.00 0.00 0.00 73 1001.7
20260509113339 48 209 8.0 13.0 0.00 0.00 0.00 73 1001.6
20260509112824 48 234 9.0 17.0 0.00 0.00 0.00 73 1001.6
20260509112318 49 223 10.0 16.0 0.00 0.00 0.00 73 1001.7
20260509111854 49 231 8.0 16.0 0.00 0.00 0.00 73 1001.5
20260509111340 49 260 7.0 17.0 0.00 0.00 0.00 73 1001.5
20260509110835 49 244 5.0 17.0 0.00 0.00 0.00 73 1001.6
20260509110324 49 227 6.0 18.0 0.00 0.00 0.00 72 1001.5
20260509105838 49 243 6.0 18.0 0.00 0.00 0.00 72 1001.4
20260509105329 49 198 6.0 14.0 0.00 0.00 0.00 73 1001.5
20260509104845 49 257 4.0 11.0 0.00 0.00 0.00 72 1001.5
20260509104322 49 229 5.0 14.0 0.00 0.00 0.00 72 1001.5
20260509103816 49 153 6.0 14.0 0.00 0.00 0.00 72 1001.4
20260509103332 49 188 5.0 8.0 0.00 0.00 0.00 72 1001.5
20260509102828 49 171 4.0 14.0 0.00 0.00 0.00 72 1001.5
20260509102337 49 157 5.0 14.0 0.00 0.00 0.00 72 1001.5
20260509101847 49 182 4.0 12.0 0.00 0.00 0.00 72 1001.4
20260509101318 49 165 5.0 12.0 0.00 0.00 0.00 71 1001.4
20260509100854 50 240 6.0 14.0 0.00 0.00 0.00 71 1001.6
20260509100318 50 244 6.0 11.0 0.00 0.00 0.00 72 1001.5
20260509095833 50 190 4.0 14.0 0.00 0.00 0.00 72 1001.6
20260509095322 50 276 4.0 14.0 0.00 0.00 0.00 71 1001.5
20260509094836 50 310 5.0 11.0 0.00 0.00 0.00 71 1001.6
20260509094349 50 205 4.0 12.0 0.00 0.00 0.00 71 1001.6
20260509093819 50 183 5.0 12.0 0.00 0.00 0.00 72 1001.7
20260509093335 50 176 3.0 10.0 0.00 0.00 0.00 71 1001.7
20260509092842 50 211 3.0 11.0 0.00 0.00 0.00 71 1001.7
20260509092327 50 247 4.0 11.0 0.00 0.00 0.00 70 1001.8
20260509091817 51 307 4.0 14.0 0.00 0.00 0.00 70 1001.9
20260509091334 51 184 4.0 14.0 0.00 0.00 0.00 70 1001.9
20260509090825 51 269 5.0 12.0 0.00 0.00 0.00 72 1002.0
20260509090338 50 236 5.0 12.0 0.00 0.00 0.00 71 1001.9
20260509085834 50 212 4.0 13.0 0.00 0.00 0.00 70 1001.9
20260509085349 51 212 4.0 11.0 0.00 0.00 0.00 70 1002.0
20260509084814 51 214 6.0 11.0 0.00 0.00 0.00 70 1002.1
20260509084329 50 165 4.0 13.0 0.00 0.00 0.00 71 1002.1
20260509083844 50 192 3.0 8.0 0.00 0.00 0.00 70 1002.1
20260509083329 50 165 3.0 9.0 0.00 0.00 0.00 70 1002.3
20260509082825 50 233 3.0 11.0 0.00 0.00 0.00 69 1002.4
20260509082352 50 165 3.0 11.0 0.00 0.00 0.00 70 1002.5
20260509081859 50 160 3.0 9.0 0.00 0.00 0.00 70 1002.6
20260509081329 50 197 3.0 9.0 0.00 0.00 0.00 69 1002.7
20260509080818 50 194 3.0 10.0 0.00 0.00 0.00 69 1002.8
20260509080333 50 145 3.0 8.0 0.00 0.00 0.00 68 1002.9
20260509075825 50 163 3.0 9.0 0.00 0.00 0.00 68 1002.9
20260509075322 50 142 3.0 9.0 0.00 0.00 0.00 68 1003.1
20260509074815 50 223 4.0 9.0 0.00 0.00 0.00 68 1003.2
20260509074351 50 192 4.0 8.0 0.00 0.00 0.00 67 1003.1
20260509073902 51 180 4.0 10.0 0.00 0.00 0.00 68 1003.1
20260509073327 50 292 4.0 10.0 0.00 0.00 0.00 68 1003.3
20260509072825 50 155 4.0 10.0 0.00 0.00 0.00 68 1003.3
20260509072334 50 234 4.0 12.0 0.00 0.00 0.00 68 1003.3
20260509071827 51 213 4.0 12.0 0.00 0.00 0.00 67 1003.4
20260509071340 51 225 4.0 14.0 0.00 0.00 0.00 67 1003.5
20260509070849 51 184 4.0 14.0 0.00 0.00 0.00 67 1003.6
20260509070343 51 270 5.0 10.0 0.00 0.00 0.00 67 1003.8
20260509065828 51 163 3.0 11.0 0.00 0.00 0.00 67 1003.9
20260509065325 51 217 4.0 12.0 0.00 0.00 0.00 67 1003.9
20260509064820 52 221 5.0 12.0 0.00 0.00 0.00 66 1004.0
20260509064336 52 213 4.0 12.0 0.00 0.00 0.00 66 1004.1
20260509063828 52 226 4.0 10.0 0.00 0.00 0.00 65 1004.0
20260509063350 53 223 4.0 11.0 0.00 0.00 0.00 65 1004.0
20260509062820 53 166 3.0 9.0 0.00 0.00 0.00 64 1004.0
20260509062336 53 185 2.0 9.0 0.00 0.00 0.00 63 1004.1
20260509061851 53 151 2.0 10.0 0.00 0.00 0.00 62 1004.2
20260509061325 53 189 3.0 10.0 0.00 0.00 0.00 62 1004.2
20260509060827 53 138 3.0 9.0 0.00 0.00 0.00 61 1004.3
20260509060321 53 150 2.0 9.0 0.00 0.00 0.00 60 1004.3
20260509055849 53 303 2.0 9.0 0.00 0.00 0.00 60 1004.4
20260509055320 54 190 3.0 9.0 0.00 0.00 0.00 59 1004.5
20260509054842 54 155 2.0 5.0 0.00 0.00 0.00 59 1004.4
20260509054347 54 149 1.0 5.0 0.00 0.00 0.00 58 1004.4
20260509053815 54 166 2.0 6.0 0.00 0.00 0.00 57 1004.6
20260509053328 54 141 2.0 6.0 0.00 0.00 0.00 56 1004.7
20260509052842 55 84 2.0 5.0 0.00 0.00 0.00 56 1004.7
20260509052325 55 172 2.0 5.0 0.00 0.00 0.00 56 1004.6
20260509051835 55 142 2.0 6.0 0.00 0.00 0.00 56 1004.7
20260509051343 55 168 2.0 6.0 0.00 0.00 0.00 55 1004.6
20260509050838 55 144 2.0 5.0 0.00 0.00 0.00 55 1004.7
20260509050327 56 184 2.0 7.0 0.00 0.00 0.00 55 1004.7
20260509045835 56 153 2.0 7.0 0.00 0.00 0.00 55 1004.7
20260509045343 56 42 2.0 7.0 0.00 0.00 0.00 54 1004.8
20260509044828 56 144 3.0 7.0 0.00 0.00 0.00 53 1004.7
20260509044325 56 186 2.0 7.0 0.00 0.00 0.00 53 1004.8
20260509043819 56 133 2.0 6.0 0.00 0.00 0.00 52 1004.8
20260509043348 56 184 2.0 5.0 0.00 0.00 0.00 52 1004.8
20260509042836 56 135 2.0 4.0 0.00 0.00 0.00 52 1004.8
20260509042328 56 69 2.0 11.0 0.00 0.00 0.00 52 1004.7
20260509041833 56 135 3.0 12.0 0.00 0.00 0.00 52 1004.9
20260509041347 56 191 2.0 8.0 0.00 0.00 0.00 51 1004.9
20260509040856 56 119 2.0 8.0 0.00 0.00 0.00 50 1004.9
20260509040340 56 157 2.0 5.0 0.00 0.00 0.00 50 1005.1
20260509035842 56 329 2.0 5.0 0.00 0.00 0.00 49 1005.2
20260509035337 56 151 2.0 5.0 0.00 0.00 0.00 48 1005.2
20260509034825 56 155 2.0 8.0 0.00 0.00 0.00 46 1005.2
20260509034318 56 225 3.0 8.0 0.00 0.00 0.00 45 1005.2
20260509033834 56 138 2.0 4.0 0.00 0.00 0.00 45 1005.4
20260509033326 56 123 2.0 4.0 0.00 0.00 0.00 44 1005.4
20260509032838 56 155 1.0 5.0 0.00 0.00 0.00 44 1005.6
20260509032352 56 172 2.0 5.0 0.00 0.00 0.00 45 1005.6
20260509031827 56 310 2.0 6.0 0.00 0.00 0.00 44 1005.7
20260509031323 55 169 1.0 4.0 0.00 0.00 0.00 41 1005.6
20260509030817 55 164 2.0 4.0 0.00 0.00 0.00 41 1005.8
20260509030348 55 351 2.0 8.0 0.00 0.00 0.00 41 1005.8
20260509025822 55 169 3.0 8.0 0.00 0.00 0.00 39 1006.0
20260509025318 55 5 2.0 5.0 0.00 0.00 0.00 39 1005.9
20260509024853 55 142 2.0 9.0 0.00 0.00 0.00 38 1006.1
20260509024329 55 156 2.0 9.0 0.00 0.00 0.00 37 1005.9
20260509023824 55 134 2.0 4.0 0.00 0.00 0.00 38 1006.1
20260509023321 55 263 1.0 3.0 0.00 0.00 0.00 37 1006.1
20260509022836 55 144 1.0 4.0 0.00 0.00 0.00 37 1006.1
20260509022330 55 139 1.0 5.0 0.00 0.00 0.00 38 1006.2
20260509021826 55 136 2.0 5.0 0.00 0.00 0.00 37 1006.2
20260509021331 55 157 2.0 4.0 0.00 0.00 0.00 37 1006.1
20260509020821 55 129 1.0 5.0 0.00 0.00 0.00 34 1006.1
20260509020354 55 36 2.0 5.0 0.00 0.00 0.00 34 1006.2
20260509015824 55 86 2.0 6.0 0.00 0.00 0.00 33 1006.1
20260509015350 55 178 2.0 6.0 0.00 0.00 0.00 30 1006.2
20260509014904 55 137 1.0 5.0 0.00 0.00 0.00 30 1006.3
20260509014329 55 141 2.0 5.0 0.00 0.00 0.00 27 1006.2
20260509013855 55 151 1.0 4.0 0.00 0.00 0.00 26 1006.2
20260509013319 55 157 1.0 5.0 0.00 0.00 0.00 27 1006.2
20260509012833 55 20 2.0 5.0 0.00 0.00 0.00 26 1006.2
20260509012350 56 70 1.0 3.0 0.00 0.00 0.00 26 1006.2
20260509011825 56 22 1.0 3.0 0.00 0.00 0.00 25 1006.1
20260509011323 56 45 1.0 3.0 0.00 0.00 0.00 25 1006.0
20260509010818 56 60 1.0 3.0 0.00 0.00 0.00 25 1006.0
20260509010333 56 44 2.0 3.0 0.00 0.00 0.00 25 1006.0
20260509005825 56 67 2.0 4.0 0.00 0.00 0.00 25 1006.1
20260509005322 56 92 2.0 4.0 0.00 0.00 0.00 25 1006.1
20260509004856 57 74 1.0 4.0 0.00 0.00 0.00 26 1006.0
20260509004329 57 5 1.0 4.0 0.00 0.00 0.00 25 1006.0
20260509003837 57 257 2.0 4.0 0.00 0.00 0.00 24 1006.1
20260509003332 58 37 1.0 3.0 0.00 0.00 0.00 24 1006.2
20260509002829 58 73 1.0 4.0 0.00 0.00 0.00 25 1006.2
20260509002344 58 61 1.0 4.0 0.00 0.00 0.00 26 1006.3
20260509001830 58 65 1.0 5.0 0.00 0.00 0.00 27 1006.4
20260509001326 58 76 1.0 5.0 0.00 0.00 0.00 26 1006.4
20260509000820 58 120 1.0 5.0 0.00 0.00 0.00 26 1006.5
20260509000318 59 73 1.0 5.0 0.00 0.00 0.00 27 1006.5
20260508235832 59 134 2.0 5.0 0.00 0.00 0.00 25 1006.6
20260508235353 59 71 1.0 5.0 0.00 0.00 0.00 29 1006.6
20260508234820 59 247 2.0 7.0 0.00 0.00 0.00 26 1006.7
20260508234336 59 221 2.0 7.0 0.00 0.00 0.00 25 1006.7
20260508233849 58 200 1.0 4.0 0.00 0.00 0.00 28 1006.8
20260508233322 58 173 1.0 4.0 0.00 0.00 0.00 28 1006.8
20260508232838 58 163 1.0 6.0 0.00 0.00 0.00 27 1006.8
20260508232333 57 156 2.0 7.0 0.00 0.00 0.00 28 1007.0
20260508231826 57 167 2.0 7.0 0.00 0.00 0.00 30 1007.0
20260508231333 57 229 2.0 9.0 0.00 0.00 0.00 29 1007.0
20260508230826 57 234 2.0 9.0 0.00 0.00 0.00 30 1007.0
20260508230320 57 157 2.0 7.0 0.00 0.00 0.00 33 1007.1
20260508225833 57 138 2.0 4.0 0.00 0.00 0.00 35 1007.1
20260508225325 57 198 2.0 6.0 0.00 0.00 0.00 37 1007.2
20260508224819 56 190 2.0 8.0 0.00 0.00 0.00 40 1007.2
20260508224337 56 154 1.0 10.0 0.00 0.00 0.00 41 1007.3
20260508223828 56 191 5.0 10.0 0.00 0.00 0.00 44 1007.4
20260508223325 57 165 3.0 5.0 0.00 0.00 0.00 41 1007.6
20260508222830 57 202 2.0 5.0 0.00 0.00 0.00 43 1007.7
20260508222340 57 192 2.0 6.0 0.00 0.00 0.00 44 1007.7
20260508221849 57 105 2.0 6.0 0.00 0.00 0.00 46 1007.7
20260508221335 57 204 3.0 6.0 0.00 0.00 0.00 46 1007.8
20260508220828 56 198 2.0 6.0 0.00 0.00 0.00 46 1007.8
20260508220333 56 152 2.0 6.0 0.00 0.00 0.00 47 1007.8
20260508215850 57 200 3.0 8.0 0.00 0.00 0.00 47 1007.9
20260508215324 56 192 2.0 8.0 0.00 0.00 0.00 49 1007.9